TITAN 3C TRANSTAGE DEB, 28807

Orbit data source: Space-Track

TITAN 3C TRANSTAGE DEB, 28807 is space debris in HEO originally from a launch on Tue, 21 Dec 1965 UTC launched from the Air Force Eastern Test Range (AFETR). Debris objects in space refer to the collection of defunct objects orbiting the Earth. Examples of debris include non-operational satellites, rocket bodies, and fragments generated from explosions, collisions, or faulty payload assembly.

Loading next visibility...
Identifier
28807, 1965-108BZ
Orbit
HEO
Country
Flag of USUS
Related business
Manufacturer
Unknown
Mission
Spacecraft
Bus & Motor
Unknown
Mass
Unknown
Launch date (UTC)
1965-12-21 (60 years ago)
Launch vehicle
Unknown
Launch site
Air Force Eastern Test Range (AFETR)
Object type
Payload
Rocket body
Debris
Shape & HBR
Unknown shape, 1.1 m
Radar Cross Section
Small (<0.1 m²)

Expand to show TLE details & history
Last TLE update: 6 days ago

TLE from 6 days ago
0 TITAN 3C TRANSTAGE DEB
1 28807U 65108BZ  26140.45008975  .00002309  00000-0  96852-2 0  9992
2 28807  25.4331 240.5901 6849792 193.8340 128.3878  2.70339546 41448
Epoch: 2026-05-20T10:48Z
TLE epoch observation values (Epoch: 2026-05-20T10:48:07.754Z)
Latitude
0.00015°
Longitude
-159.52461°
Altitude
28,147.648 km
Speed
2.186 km/s
True Right ascension
16h 02m 28s
True Declination
0° 00' 01"
Sunlit
Object was in daylight at epoch
Visualization orbit readout
Latitude
Unknown
Longitude
Unknown
Altitude
Unknown
Speed
Unknown
Apparent Right ascension
Unknown
Apparent Declination
Unknown
Sunlit
N/A
Visualization observer readout
Local Sidereal Time
17:11:20
Azimuth
Unknown
Elevation
Unknown
Doppler factor
Unknown
Orbital elements
Apogee altitude
30,304.942 km
Perigee altitude
480.068 km
Semi-major axis
21,770.642 km
Eccentricity
0.68498
Inclination
25.4331°
RAAN
240.5901°
Arg. of periapsis
193.834°
True anomaly
166.209°
Mean anomaly
128.3878°
Eccentric anomaly
148.74861°
Mean motion
0.67567 °/min
Orbital period
532.8 mins
BSTAR
0.0096852
Loading maneuver chart data...
Computing Atmospheric mass density...

Documentation

Showing up to 5 results
|